Weather History for CYUL - November, 2013

Change the Weather History Date:

Saturday, November 2, 2013

  Actual Average Record
Temperature  
Mean Temperature 40 °F -  
Max Temperature 46 °F 46 °F 66 °F (1999)
Min Temperature 35 °F 32 °F 19 °F (2002)
Degree Days  
Heating Degree Days 24    
Moisture  
Dew Point 36 °F    
Average Humidity 80    
Maximum Humidity 100    
Minimum Humidity 48    
Precipitation  
Precipitation 0.08 in - - ()
Sea Level Pressure  
Sea Level Pressure 29.72 in    
Wind  
Wind Speed 7 mph ()    
Max Wind Speed 20 mph    
Max Gust Speed 25 mph    
Visibility 10.8 miles    
Events Rain    
Averages and records for this station are not official NWS values.
T = Trace of Precipitation, MM = Missing Value Source: Averaged Metar Reports

Daily Weather History Graph

Daily Weather History Graph

Search for Another Location

Airport or City:

Trip Planner

Search our weather history database for the weather conditions in past years. The results will help you decide how hot, cold, wet, or windy it might be!

Date:

Astronomy

Nov. 02, 2013 Rise Set
Actual Time 7:36 AM EDT 5:40 PM EDT
Civil Twilight 7:05 AM EDT 6:11 PM EDT
Nautical Twilight 6:30 AM EDT 6:46 PM EDT
Astronomical Twilight 5:55 AM EDT 7:20 PM EDT
Moon 6:28 AM EDT (11/2) 5:11 PM EDT (11/2)
Length of Visible Light 11h 06m
Length of Day
10h 04m
Waning Crescent, 1% of the Moon is Illuminated
Nov 2
Waning Crescent
Nov 3
New
Nov 10
First Quarter
Nov 17
Full
Nov 25
Last Quarter

Hourly Weather History & Observations

Time (EDT) Temp. Windchill Dew Point Humidity Pressure Visibility Wind Dir Wind Speed Gust Speed Precip Events Conditions
12:00 AM 48.2 °F - 39.2 °F 71% 29.61 in 15.0 mi West 6.9 mph - N/A   Overcast
1:00 AM 48.2 °F - 39.2 °F 71% 29.62 in 15.0 mi WSW 10.4 mph - N/A   Overcast
2:00 AM 47 °F - 39 °F 66% 29.62 in 15 mi WSW 5.8 mph - -   Overcast
2:00 AM 46.4 °F 43.5 °F 39.2 °F 76% 29.62 in 15.0 mi WSW 5.8 mph - N/A   Overcast
2:26 AM 46.4 °F 44.3 °F 41.0 °F 81% 29.62 in 15.0 mi West 4.6 mph - N/A Rain Light Rain Showers
3:00 AM 44.6 °F 41.4 °F 41.0 °F 87% 29.62 in 15.0 mi WSW 5.8 mph - N/A   Overcast
4:00 AM 44.6 °F - 42.8 °F 93% 29.61 in 15.0 mi WSW 2.3 mph - N/A   Overcast
5:00 AM 42.8 °F 41.1 °F 41.0 °F 93% 29.62 in 6.0 mi NNW 3.5 mph - N/A   Light Drizzle
6:00 AM 42.8 °F - 41.0 °F 93% 29.63 in 5.0 mi Calm Calm - N/A   Light Drizzle
7:00 AM 42.8 °F 41.1 °F 41.0 °F 93% 29.64 in 6.0 mi WNW 3.5 mph - N/A Rain Light Rain
7:30 AM 42.8 °F 41.1 °F 41.0 °F 93% 29.65 in 7.0 mi West 3.5 mph - N/A Rain Light Rain
7:48 AM 42.8 °F 40.1 °F 41.0 °F 93% 29.66 in 5.0 mi WNW 4.6 mph - N/A   Light Drizzle
8:00 AM 42 °F - 41 °F 95% 29.67 in 4 mi WNW 4.6 mph - - Rain Light Drizzle
8:00 AM 42.8 °F 40.1 °F 41.0 °F 93% 29.66 in 4.0 mi WNW 4.6 mph - N/A   Light Drizzle
8:12 AM 42.8 °F 40.1 °F 41.0 °F 93% 29.67 in 2.0 mi WNW 4.6 mph - N/A   Light Drizzle
8:29 AM 42.8 °F 40.1 °F 41.0 °F 93% 29.68 in 4.0 mi NW 4.6 mph - N/A   Light Drizzle
9:00 AM 42.8 °F 40.1 °F 41.0 °F 93% 29.68 in 5.0 mi NNW 4.6 mph - N/A Rain Light Rain
9:37 AM 42.8 °F 39.3 °F 41.0 °F 93% 29.69 in 7.0 mi NNW 5.8 mph - N/A Rain Light Rain
10:00 AM 41.0 °F 35.8 °F 39.2 °F 93% 29.69 in 7.0 mi NNW 8.1 mph - N/A Rain Light Rain
10:13 AM 41.0 °F 35.8 °F 41.0 °F 100% 29.69 in 8.0 mi NNW 8.1 mph - N/A Rain Light Rain
11:00 AM 41.0 °F 34.3 °F 39.2 °F 93% 29.70 in 5.0 mi North 11.5 mph - N/A Rain Light Rain
12:00 PM 41.0 °F 34.3 °F 37.4 °F 87% 29.71 in 7.0 mi NE 11.5 mph - N/A Rain Light Rain
1:00 PM 41.0 °F 35.2 °F 37.4 °F 87% 29.70 in 12.0 mi NNE 9.2 mph - N/A Rain Light Rain
2:00 PM 42 °F - 37 °F 75% 29.72 in 12 mi North 8.1 mph - - Rain Light Rain
2:00 PM 41.0 °F 34.7 °F 37.4 °F 87% 29.71 in 12.0 mi North 10.4 mph - N/A Rain Light Rain
3:00 PM 42.8 °F 38.6 °F 35.6 °F 76% 29.72 in 15.0 mi NNE 6.9 mph - N/A   Overcast
4:00 PM 42.8 °F 38.6 °F 33.8 °F 70% 29.73 in 15.0 mi NNE 6.9 mph - N/A   Overcast
5:00 PM 42.8 °F - 35.6 °F 76% 29.76 in 15.0 mi North 2.3 mph - N/A   Overcast
6:00 PM 42.8 °F 37.5 °F 32.0 °F 66% 29.80 in 15.0 mi North 9.2 mph - N/A   Overcast
7:00 PM 41.0 °F 33.1 °F 30.2 °F 65% 29.84 in 15.0 mi North 15.0 mph - N/A   Overcast
8:00 PM 38 °F - 27 °F 53% 29.88 in 15 mi North 17.3 mph - -   Partly Cloudy
8:00 PM 37.4 °F 27.5 °F 26.6 °F 65% 29.88 in 15.0 mi North 18.4 mph - N/A   Mostly Cloudy
9:00 PM 37.4 °F 29.8 °F 24.8 °F 60% 29.92 in 15.0 mi North 11.5 mph 17.3 mph N/A   Mostly Cloudy
9:03 PM 35.6 °F 25.5 °F 24.8 °F 65% 29.92 in 15.0 mi North 17.3 mph - N/A   Mostly Cloudy
10:00 PM 35.6 °F 26.2 °F 21.2 °F 56% 29.96 in 15.0 mi North 15.0 mph 21.9 mph N/A   Overcast
11:00 PM 35.6 °F 24.8 °F 17.6 °F 48% 29.98 in 15.0 mi North 19.6 mph 25.3 mph N/A   Overcast